Location: Songkhla
(7.2000°N, 100.6000°E)
Time: 21:17:40
(UTC+07:00)

ARIANE 5 DEB (SYLDA) - Pass Details

Date: 16 April 2026
Orbit: 457 x 17829 km, 5.8° (Epoch: 20 May)

Event Time Altitude Azimuth Distance (km) Brightness Sun altitude
Rises 19:36:09 0° 234° (SW) 2,549 6.3 -17.9°
Reaches altitude 10° 19:39:12 10° 196° (SSW) 1,594 4.7 -18.6°
Enters shadow 19:40:04 12° 178° (S) 1,534 4.4 -18.8°
